Location: Bremen
(53.0793°N, 8.8017°E)
Time: 23:47:11
(UTC+02:00)

Altair - Pass Details

Date: 13 April 2024
Orbit: 1501 x 1682 km, 47.2° (Epoch: 19 May)

Event Time Altitude Azimuth Distance (km) Brightness Sun altitude
Rises 00:51:39 0° 257° (WSW) 4,849 10.1 -27.4°
Reaches altitude 10° 00:54:51 10° 255° (WSW) 3,839 9.5 -27.4°
Maximum altitude 01:04:23 63° 178° (S) 1,730 7.4 -27.6°
Drops below altitude 10° 01:13:34 10° 100° (E) 3,703 9.4 -27.7°
Sets 01:16:36 0° 97° (E) 4,668 9.9 -27.8°
